nws-alerts: Checking more than four warning/county codes can delay the loading of your pages. You should use a cron job to get the data.
EllijayWeather Station Historical Data
Daily Summary for September 25, 2018 Units:  English    Metric   Both
Daily Weekly Monthly Yearly Custom
  High: Low: Average:
Temperature: 79.5 °F 68.7 °F 72.3 °F
Dew Point: 73.2 °F 63.3 °F 67 °F
Humidity: 85% 80% 83%
Wind Speed: 0mph 0mph 0mph
Wind Gust: 0mph - -
Wind- - North
Pressure: 30.19 in 30.07 in -
Precipitation: 0.34 in    
Historical Graphs
 
 
Tabular Data for September 25, 2018
Time Temperature Dew Point Pressure Wind Wind Speed Wind Gust Humidity Rainfall Rate (Hourly) solar
00:04 69.3 °F 64.6 °F 30.19 in Calm     85% 0.02 in meteobridge W/m2
00:09 69.3 °F 64.6 °F 30.19 in Calm     85% 0.02 in meteobridge W/m2
00:14 69.3 °F 64.6 °F 30.19 in Calm     85% 0.02 in meteobridge W/m2
00:19 69.3 °F 64.6 °F 30.19 in Calm     85% 0.02 in meteobridge W/m2
00:24 69.3 °F 64.6 °F 30.19 in Calm     85% 0.01 in meteobridge W/m2
00:29 69.3 °F 64.6 °F 30.19 in Calm     85% 0.01 in meteobridge W/m2
00:34 69.1 °F 64.4 °F 30.19 in Calm     85% 0.02 in meteobridge W/m2
00:39 69.1 °F 64 °F 30.19 in Calm     84% 0.03 in meteobridge W/m2
00:44 69.1 °F 64 °F 30.18 in Calm     84% 0.03 in meteobridge W/m2
00:49 69.1 °F 64 °F 30.18 in Calm     84% 0.04 in meteobridge W/m2
00:54 69.1 °F 64 °F 30.18 in Calm     84% 0.04 in meteobridge W/m2
00:59 69.1 °F 64 °F 30.18 in Calm     84% 0.03 in meteobridge W/m2
01:04 69.1 °F 64 °F 30.18 in Calm     84% 0.04 in meteobridge W/m2
01:09 69.1 °F 64 °F 30.18 in Calm     84% 0.04 in meteobridge W/m2
01:14 69.1 °F 64 °F 30.19 in Calm     84% 0.06 in meteobridge W/m2
01:19 69.1 °F 64 °F 30.19 in Calm     84% 0.08 in meteobridge W/m2
01:24 69.1 °F 64 °F 30.18 in Calm     84% 0.11 in meteobridge W/m2
01:29 69.1 °F 64 °F 30.18 in Calm     84% 0.14 in meteobridge W/m2
01:34 69.1 °F 64 °F 30.17 in Calm     84% 0.15 in meteobridge W/m2
01:39 69.1 °F 64 °F 30.17 in Calm     84% 0.16 in meteobridge W/m2
01:44 69.1 °F 64 °F 30.17 in Calm     84% 0.18 in meteobridge W/m2
01:49 69.1 °F 63.7 °F 30.17 in Calm     83% 0.18 in meteobridge W/m2
01:54 68.9 °F 63.5 °F 30.17 in Calm     83% 0.19 in meteobridge W/m2
01:59 68.9 °F 63.5 °F 30.16 in Calm     83% 0.2 in meteobridge W/m2
02:04 68.9 °F 63.5 °F 30.16 in Calm     83% 0.19 in meteobridge W/m2
02:09 68.9 °F 63.5 °F 30.16 in Calm     83% 0.2 in meteobridge W/m2
02:14 68.9 °F 63.5 °F 30.16 in Calm     83% 0.22 in meteobridge W/m2
02:19 68.9 °F 63.5 °F 30.16 in Calm     83% 0.21 in meteobridge W/m2
02:24 68.9 °F 63.5 °F 30.16 in Calm     83% 0.19 in meteobridge W/m2
02:29 68.9 °F 63.5 °F 30.16 in Calm     83% 0.16 in meteobridge W/m2
02:34 68.9 °F 63.5 °F 30.16 in Calm     83% 0.14 in meteobridge W/m2
02:39 68.9 °F 63.5 °F 30.16 in Calm     83% 0.12 in meteobridge W/m2
02:44 68.9 °F 63.5 °F 30.16 in Calm     83% 0.11 in meteobridge W/m2
02:49 68.7 °F 63.3 °F 30.16 in Calm     83% 0.1 in meteobridge W/m2
02:54 68.7 °F 63.3 °F 30.16 in Calm     83% 0.09 in meteobridge W/m2
02:59 68.7 °F 63.3 °F 30.16 in Calm     83% 0.08 in meteobridge W/m2
03:04 68.7 °F 63.3 °F 30.16 in Calm     83% 0.08 in meteobridge W/m2
03:09 68.7 °F 63.3 °F 30.16 in Calm     83% 0.07 in meteobridge W/m2
03:14 68.7 °F 63.3 °F 30.16 in Calm     83% 0.04 in meteobridge W/m2
03:19 68.7 °F 63.3 °F 30.16 in Calm     83% 0.03 in meteobridge W/m2
03:24 68.7 °F 63.3 °F 30.15 in Calm     83% 0.02 in meteobridge W/m2
03:29 68.7 °F 63.3 °F 30.15 in Calm     83% 0.02 in meteobridge W/m2
03:34 68.7 °F 63.3 °F 30.15 in Calm     83% 0.02 in meteobridge W/m2
03:39 68.7 °F 63.3 °F 30.15 in Calm     83% 0.02 in meteobridge W/m2
03:44 68.7 °F 63.3 °F 30.14 in Calm     83% 0.01 in meteobridge W/m2
03:49 68.7 °F 63.3 °F 30.15 in Calm     83% 0.01 in meteobridge W/m2
03:54 68.9 °F 63.5 °F 30.15 in Calm     83% 0.01 in meteobridge W/m2
03:59 68.9 °F 63.5 °F 30.15 in Calm     83% 0.01 in meteobridge W/m2
04:04 68.9 °F 63.5 °F 30.15 in Calm     83% 0 in meteobridge W/m2
04:09 68.9 °F 63.5 °F 30.15 in Calm     83% 0 in meteobridge W/m2
04:14 68.9 °F 63.5 °F 30.15 in Calm     83% 0 in meteobridge W/m2
04:19 68.9 °F 63.5 °F 30.15 in Calm     83% 0 in meteobridge W/m2
04:24 68.9 °F 63.5 °F 30.14 in Calm     83% 0 in meteobridge W/m2
04:29 68.9 °F 63.5 °F 30.14 in Calm     83% 0 in meteobridge W/m2
04:34 68.9 °F 63.5 °F 30.14 in Calm     83% 0 in meteobridge W/m2
04:39 68.9 °F 63.5 °F 30.14 in Calm     83% 0 in meteobridge W/m2
04:44 68.9 °F 63.5 °F 30.14 in Calm     83% 0 in meteobridge W/m2
04:49 68.9 °F 63.5 °F 30.15 in Calm     83% 0 in meteobridge W/m2
04:54 68.9 °F 63.5 °F 30.14 in Calm     83% 0 in meteobridge W/m2
04:59 69.1 °F 63.7 °F 30.15 in Calm     83% 0.01 in meteobridge W/m2
05:04 69.1 °F 63.7 °F 30.15 in Calm     83% 0.01 in meteobridge W/m2
05:09 69.1 °F 63.7 °F 30.15 in Calm     83% 0.01 in meteobridge W/m2
05:14 69.1 °F 63.7 °F 30.15 in Calm     83% 0.01 in meteobridge W/m2
05:19 69.1 °F 63.7 °F 30.15 in Calm     83% 0.01 in meteobridge W/m2
05:24 69.1 °F 63.7 °F 30.15 in Calm     83% 0.01 in meteobridge W/m2
05:29 69.1 °F 63.7 °F 30.15 in Calm     83% 0.01 in meteobridge W/m2
05:34 69.1 °F 63.7 °F 30.15 in Calm     83% 0.01 in meteobridge W/m2
05:39 69.1 °F 63.7 °F 30.15 in Calm     83% 0.01 in meteobridge W/m2
05:44 69.1 °F 63.7 °F 30.15 in Calm     83% 0.01 in meteobridge W/m2
05:49 69.1 °F 63.7 °F 30.15 in Calm     83% 0.01 in meteobridge W/m2
05:54 69.1 °F 63.7 °F 30.15 in Calm     83% 0.01 in meteobridge W/m2
05:59 69.1 °F 63.7 °F 30.15 in Calm     83% 0 in meteobridge W/m2
06:04 69.1 °F 63.7 °F 30.15 in Calm     83% 0 in meteobridge W/m2
06:09 69.1 °F 63.7 °F 30.15 in Calm     83% 0 in meteobridge W/m2
06:14 68.9 °F 63.5 °F 30.15 in Calm     83% 0 in meteobridge W/m2
06:19 68.9 °F 63.5 °F 30.15 in Calm     83% 0 in meteobridge W/m2
06:24 68.9 °F 63.5 °F 30.16 in Calm     83% 0 in meteobridge W/m2
06:29 69.1 °F 63.7 °F 30.16 in Calm     83% 0 in meteobridge W/m2
06:34 69.1 °F 63.7 °F 30.16 in Calm     83% 0 in meteobridge W/m2
06:39 69.1 °F 63.7 °F 30.16 in Calm     83% 0 in meteobridge W/m2
06:44 69.1 °F 63.7 °F 30.16 in Calm     83% 0 in meteobridge W/m2
06:49 69.1 °F 63.7 °F 30.16 in Calm     83% 0 in meteobridge W/m2
06:54 69.1 °F 63.7 °F 30.16 in Calm     83% 0 in meteobridge W/m2
06:59 69.1 °F 63.7 °F 30.16 in Calm     83% 0 in meteobridge W/m2
07:04 69.1 °F 63.7 °F 30.17 in Calm     83% 0 in meteobridge W/m2
07:09 69.1 °F 63.7 °F 30.17 in Calm     83% 0 in meteobridge W/m2
07:14 69.1 °F 63.7 °F 30.17 in Calm     83% 0 in meteobridge W/m2
07:19 69.1 °F 63.7 °F 30.17 in Calm     83% 0 in meteobridge W/m2
07:24 69.1 °F 63.7 °F 30.17 in Calm     83% 0 in meteobridge W/m2
07:29 69.1 °F 63.7 °F 30.17 in Calm     83% 0 in meteobridge W/m2
07:34 69.1 °F 63.3 °F 30.17 in Calm     82% 0 in meteobridge W/m2
07:39 69.1 °F 63.3 °F 30.17 in Calm     82% 0 in meteobridge W/m2
07:44 69.1 °F 63.3 °F 30.17 in Calm     82% 0 in meteobridge W/m2
07:49 69.1 °F 63.3 °F 30.18 in Calm     82% 0 in meteobridge W/m2
07:54 69.1 °F 63.3 °F 30.18 in Calm     82% 0 in meteobridge W/m2
07:59 69.1 °F 63.3 °F 30.18 in Calm     82% 0 in meteobridge W/m2
08:04 69.3 °F 63.5 °F 30.18 in Calm     82% 0 in meteobridge W/m2
08:09 69.3 °F 63.5 °F 30.18 in Calm     82% 0 in meteobridge W/m2
08:14 69.3 °F 63.5 °F 30.18 in Calm     82% 0 in meteobridge W/m2
08:19 69.4 °F 63.7 °F 30.18 in Calm     82% 0 in meteobridge W/m2
08:24 69.4 °F 63.7 °F 30.18 in Calm     82% 0 in meteobridge W/m2
08:29 69.4 °F 63.7 °F 30.18 in Calm     82% 0 in meteobridge W/m2
08:34 69.6 °F 63.9 °F 30.18 in Calm     82% 0 in meteobridge W/m2
08:39 69.6 °F 63.9 °F 30.18 in Calm     82% 0 in meteobridge W/m2
08:44 69.8 °F 64 °F 30.18 in Calm     82% 0 in meteobridge W/m2
08:49 69.8 °F 64 °F 30.18 in Calm     82% 0 in meteobridge W/m2
08:53 70 °F 64.2 °F 30.18 in Calm     82% 0 in meteobridge W/m2
08:59 70 °F 64.2 °F 30.18 in Calm     82% 0.01 in meteobridge W/m2
09:04 70.2 °F 64.4 °F 30.18 in Calm     82% 0.01 in meteobridge W/m2
09:09 70.2 °F 64.4 °F 30.18 in Calm     82% 0.01 in meteobridge W/m2
09:14 70.2 °F 64.4 °F 30.18 in Calm     82% 0.01 in meteobridge W/m2
09:19 70.2 °F 64.4 °F 30.18 in Calm     82% 0.01 in meteobridge W/m2
09:24 70.3 °F 64.6 °F 30.18 in Calm     82% 0.01 in meteobridge W/m2
09:29 70.3 °F 64.6 °F 30.19 in Calm     82% 0.01 in meteobridge W/m2
09:34 70.3 °F 64.6 °F 30.19 in Calm     82% 0.01 in meteobridge W/m2
09:39 70.3 °F 64.6 °F 30.19 in Calm     82% 0.01 in meteobridge W/m2
09:44 70.3 °F 64.6 °F 30.19 in Calm     82% 0.01 in meteobridge W/m2
09:49 70.3 °F 64.6 °F 30.19 in Calm     82% 0.01 in meteobridge W/m2
09:54 70.3 °F 64.6 °F 30.19 in Calm     82% 0.01 in meteobridge W/m2
09:59 70.3 °F 64.6 °F 30.19 in Calm     82% 0 in meteobridge W/m2
10:04 70.3 °F 64.6 °F 30.19 in Calm     82% 0 in meteobridge W/m2
10:09 70.3 °F 64.6 °F 30.19 in Calm     82% 0 in meteobridge W/m2
10:14 70.3 °F 64.6 °F 30.19 in Calm     82% 0 in meteobridge W/m2
10:19 70.5 °F 64.8 °F 30.19 in Calm     82% 0 in meteobridge W/m2
10:24 70.5 °F 64.8 °F 30.19 in Calm     82% 0 in meteobridge W/m2
10:29 70.7 °F 64.9 °F 30.19 in Calm     82% 0 in meteobridge W/m2
10:34 70.9 °F 64.8 °F 30.19 in Calm     81% 0 in meteobridge W/m2
10:39 71.1 °F 64.9 °F 30.19 in Calm     81% 0 in meteobridge W/m2
10:44 71.1 °F 64.9 °F 30.19 in Calm     81% 0 in meteobridge W/m2
10:49 71.2 °F 65.1 °F 30.19 in Calm     81% 0 in meteobridge W/m2
10:54 71.4 °F 65.3 °F 30.19 in Calm     81% 0 in meteobridge W/m2
10:59 71.2 °F 65.1 °F 30.19 in Calm     81% 0 in meteobridge W/m2
11:04 71.4 °F 65.3 °F 30.19 in Calm     81% 0 in meteobridge W/m2
11:09 71.2 °F 65.1 °F 30.19 in Calm     81% 0 in meteobridge W/m2
11:14 71.4 °F 65.3 °F 30.19 in Calm     81% 0 in meteobridge W/m2
11:19 71.4 °F 65.3 °F 30.19 in Calm     81% 0 in meteobridge W/m2
11:24 71.4 °F 65.3 °F 30.19 in Calm     81% 0 in meteobridge W/m2
11:29 71.6 °F 65.5 °F 30.19 in Calm     81% 0 in meteobridge W/m2
11:34 71.8 °F 65.7 °F 30.19 in Calm     81% 0 in meteobridge W/m2
11:39 71.6 °F 65.5 °F 30.19 in Calm     81% 0 in meteobridge W/m2
11:44 71.4 °F 65.3 °F 30.19 in Calm     81% 0 in meteobridge W/m2
11:49 71.4 °F 65.3 °F 30.19 in Calm     81% 0 in meteobridge W/m2
11:54 71.4 °F 65.3 °F 30.19 in Calm     81% 0 in meteobridge W/m2
11:59 71.8 °F 65.7 °F 30.19 in Calm     81% 0 in meteobridge W/m2
12:04 72 °F 65.8 °F 30.19 in Calm     81% 0 in meteobridge W/m2
12:09 72 °F 65.8 °F 30.19 in Calm     81% 0 in meteobridge W/m2
12:14 72.1 °F 66 °F 30.19 in Calm     81% 0 in meteobridge W/m2
12:19 72.1 °F 66 °F 30.19 in Calm     81% 0 in meteobridge W/m2
12:24 72.1 °F 66 °F 30.19 in Calm     81% 0 in meteobridge W/m2
12:29 72.3 °F 66.6 °F 30.19 in Calm     82% 0 in meteobridge W/m2
12:34 72.5 °F 66.7 °F 30.19 in Calm     82% 0 in meteobridge W/m2
12:39 72.7 °F 66.9 °F 30.18 in Calm     82% 0 in meteobridge W/m2
12:44 72.9 °F 67.1 °F 30.19 in Calm     82% 0 in meteobridge W/m2
12:49 72.9 °F 67.5 °F 30.18 in Calm     83% 0 in meteobridge W/m2
12:54 73 °F 67.6 °F 30.18 in Calm     83% 0 in meteobridge W/m2
12:59 73 °F 67.6 °F 30.18 in Calm     83% 0 in meteobridge W/m2
13:04 73.4 °F 68 °F 30.18 in Calm     83% 0 in meteobridge W/m2
13:09 73.6 °F 68.2 °F 30.17 in Calm     83% 0 in meteobridge W/m2
13:14 73.9 °F 68.4 °F 30.17 in Calm     83% 0 in meteobridge W/m2
13:19 74.1 °F 68.9 °F 30.17 in Calm     84% 0 in meteobridge W/m2
13:24 74.3 °F 69.1 °F 30.17 in Calm     84% 0 in meteobridge W/m2
13:29 74.5 °F 69.3 °F 30.17 in Calm     84% 0 in meteobridge W/m2
13:34 74.5 °F 69.6 °F 30.17 in Calm     85% 0 in meteobridge W/m2
13:39 74.5 °F 69.6 °F 30.16 in Calm     85% 0 in meteobridge W/m2
13:44 74.5 °F 69.6 °F 30.16 in Calm     85% 0 in meteobridge W/m2
13:49 74.5 °F 69.6 °F 30.16 in Calm     85% 0 in meteobridge W/m2
13:54 74.5 °F 69.6 °F 30.16 in Calm     85% 0 in meteobridge W/m2
13:59 74.5 °F 69.6 °F 30.16 in Calm     85% 0 in meteobridge W/m2
14:04 74.5 °F 69.6 °F 30.16 in Calm     85% 0 in meteobridge W/m2
14:09 74.7 °F 69.8 °F 30.16 in Calm     85% 0 in meteobridge W/m2
14:14 74.7 °F 69.8 °F 30.16 in Calm     85% 0 in meteobridge W/m2
14:19 74.8 °F 70 °F 30.15 in Calm     85% 0 in meteobridge W/m2
14:24 75.2 °F 70.3 °F 30.15 in Calm     85% 0 in meteobridge W/m2
14:29 75.6 °F 70.7 °F 30.15 in Calm     85% 0 in meteobridge W/m2
14:34 75.7 °F 70.9 °F 30.15 in Calm     85% 0 in meteobridge W/m2
14:39 75.9 °F 71.1 °F 30.14 in Calm     85% 0 in meteobridge W/m2
14:44 76.3 °F 71.4 °F 30.14 in Calm     85% 0 in meteobridge W/m2
14:49 76.3 °F 71.4 °F 30.14 in Calm     85% 0 in meteobridge W/m2
14:54 76.5 °F 71.6 °F 30.14 in Calm     85% 0 in meteobridge W/m2
14:59 76.5 °F 71.6 °F 30.14 in Calm     85% 0 in meteobridge W/m2
15:04 76.3 °F 71.4 °F 30.14 in Calm     85% 0 in meteobridge W/m2
15:09 76.5 °F 71.6 °F 30.13 in Calm     85% 0 in meteobridge W/m2
15:14 76.5 °F 71.6 °F 30.13 in Calm     85% 0 in meteobridge W/m2
15:19 76.5 °F 71.6 °F 30.13 in Calm     85% 0 in meteobridge W/m2
15:24 76.6 °F 71.8 °F 30.13 in Calm     85% 0 in meteobridge W/m2
15:29 76.6 °F 71.8 °F 30.12 in Calm     85% 0 in meteobridge W/m2
15:34 76.8 °F 71.6 °F 30.12 in Calm     84% 0 in meteobridge W/m2
15:39 77 °F 71.8 °F 30.11 in Calm     84% 0 in meteobridge W/m2
15:44 77.2 °F 72 °F 30.11 in Calm     84% 0 in meteobridge W/m2
15:49 77.2 °F 72 °F 30.11 in Calm     84% 0 in meteobridge W/m2
15:54 77.2 °F 72 °F 30.11 in Calm     84% 0 in meteobridge W/m2
15:59 77.4 °F 72.1 °F 30.11 in Calm     84% 0 in meteobridge W/m2
16:04 77.5 °F 72.3 °F 30.11 in Calm     84% 0 in meteobridge W/m2
16:09 77.7 °F 72.5 °F 30.11 in Calm     84% 0 in meteobridge W/m2
16:14 78.3 °F 73 °F 30.11 in Calm     84% 0 in meteobridge W/m2
16:19 78.4 °F 72.5 °F 30.11 in Calm     82% 0 in meteobridge W/m2
16:24 78.6 °F 73 °F 30.10 in Calm     83% 0 in meteobridge W/m2
16:29 78.8 °F 72.9 °F 30.10 in Calm     82% 0 in meteobridge W/m2
16:34 79 °F 72.7 °F 30.10 in Calm     81% 0 in meteobridge W/m2
16:39 79.2 °F 72.5 °F 30.10 in Calm     80% 0 in meteobridge W/m2
16:44 79.3 °F 72.7 °F 30.10 in Calm     80% 0 in meteobridge W/m2
16:49 79.5 °F 72.9 °F 30.09 in Calm     80% 0 in meteobridge W/m2
16:54 79.5 °F 73.2 °F 30.09 in Calm     81% 0 in meteobridge W/m2
16:59 79.3 °F 73 °F 30.09 in Calm     81% 0 in meteobridge W/m2
17:04 79.2 °F 72.9 °F 30.09 in Calm     81% 0 in meteobridge W/m2
17:09 79.2 °F 72.5 °F 30.09 in Calm     80% 0 in meteobridge W/m2
17:14 79.3 °F 72.7 °F 30.09 in Calm     80% 0 in meteobridge W/m2
17:19 79.3 °F 72.7 °F 30.08 in Calm     80% 0 in meteobridge W/m2
17:24 79.3 °F 72.7 °F 30.08 in Calm     80% 0 in meteobridge W/m2
17:29 79.3 °F 72.7 °F 30.09 in Calm     80% 0 in meteobridge W/m2
17:34 79.3 °F 73 °F 30.08 in Calm     81% 0 in meteobridge W/m2
17:39 79.2 °F 72.9 °F 30.08 in Calm     81% 0 in meteobridge W/m2
17:44 79 °F 72.7 °F 30.08 in Calm     81% 0 in meteobridge W/m2
17:49 78.8 °F 72.5 °F 30.08 in Calm     81% 0 in meteobridge W/m2
17:54 78.6 °F 72.7 °F 30.08 in Calm     82% 0 in meteobridge W/m2
17:59 78.6 °F 72.7 °F 30.08 in Calm     82% 0 in meteobridge W/m2
18:04 78.4 °F 72.5 °F 30.08 in Calm     82% 0 in meteobridge W/m2
18:09 78.3 °F 72.3 °F 30.08 in Calm     82% 0 in meteobridge W/m2
18:14 78.1 °F 72.1 °F 30.09 in Calm     82% 0 in meteobridge W/m2
18:19 77.7 °F 72.1 °F 30.09 in Calm     83% 0 in meteobridge W/m2
18:24 77.4 °F 71.8 °F 30.09 in Calm     83% 0 in meteobridge W/m2
18:29 77.2 °F 72 °F 30.08 in Calm     84% 0 in meteobridge W/m2
18:34 76.8 °F 71.6 °F 30.08 in Calm     84% 0 in meteobridge W/m2
18:39 76.6 °F 71.4 °F 30.08 in Calm     84% 0 in meteobridge W/m2
18:43 76.6 °F 71.4 °F 30.07 in Calm     84% 0 in meteobridge W/m2
18:49 76.5 °F 71.6 °F 30.08 in Calm     85% 0 in meteobridge W/m2
18:54 76.3 °F 71.4 °F 30.08 in Calm     85% 0 in meteobridge W/m2
18:59 76.3 °F 71.4 °F 30.08 in Calm     85% 0 in meteobridge W/m2
19:04 75.9 °F 71.1 °F 30.08 in Calm     85% 0 in meteobridge W/m2
19:09 75.7 °F 70.9 °F 30.08 in Calm     85% 0 in meteobridge W/m2
19:14 75.6 °F 70.7 °F 30.08 in Calm     85% 0 in meteobridge W/m2
19:19 75.6 °F 70.7 °F 30.08 in Calm     85% 0 in meteobridge W/m2
19:23 75.4 °F 70.5 °F 30.08 in Calm     85% 0 in meteobridge W/m2
19:29 75 °F 70.2 °F 30.09 in Calm     85% 0 in meteobridge W/m2
19:34 74.8 °F 70 °F 30.09 in Calm     85% 0 in meteobridge W/m2
19:39 74.7 °F 69.8 °F 30.09 in Calm     85% 0 in meteobridge W/m2
19:44 74.7 °F 69.8 °F 30.09 in Calm     85% 0 in meteobridge W/m2
19:49 74.3 °F 69.4 °F 30.09 in Calm     85% 0 in meteobridge W/m2
19:54 74.1 °F 69.3 °F 30.10 in Calm     85% 0 in meteobridge W/m2
19:59 73.9 °F 69.1 °F 30.10 in Calm     85% 0 in meteobridge W/m2
20:04 73.9 °F 69.1 °F 30.10 in Calm     85% 0 in meteobridge W/m2
20:09 73.9 °F 69.1 °F 30.10 in Calm     85% 0 in meteobridge W/m2
20:14 73.8 °F 68.9 °F 30.10 in Calm     85% 0 in meteobridge W/m2
20:19 73.6 °F 68.7 °F 30.10 in Calm     85% 0 in meteobridge W/m2
20:24 73.6 °F 68.7 °F 30.11 in Calm     85% 0 in meteobridge W/m2
20:29 73.6 °F 68.7 °F 30.11 in Calm     85% 0 in meteobridge W/m2
20:33 73.6 °F 68.7 °F 30.11 in Calm     85% 0 in meteobridge W/m2
20:39 73.4 °F 68.5 °F 30.11 in Calm     85% 0 in meteobridge W/m2
20:43 73.4 °F 68.5 °F 30.10 in Calm     85% 0 in meteobridge W/m2
20:49 73.4 °F 68.5 °F 30.11 in Calm     85% 0 in meteobridge W/m2
20:54 73.4 °F 68.5 °F 30.11 in Calm     85% 0 in meteobridge W/m2
20:59 73.4 °F 68.5 °F 30.11 in Calm     85% 0 in meteobridge W/m2
21:04 73.4 °F 68.5 °F 30.11 in Calm     85% 0 in meteobridge W/m2
21:09 73.4 °F 68.5 °F 30.11 in Calm     85% 0 in meteobridge W/m2
21:14 73.2 °F 68.4 °F 30.11 in Calm     85% 0 in meteobridge W/m2
21:19 73.2 °F 68.4 °F 30.12 in Calm     85% 0 in meteobridge W/m2
21:24 73.2 °F 68.4 °F 30.12 in Calm     85% 0 in meteobridge W/m2
21:29 73.2 °F 68.4 °F 30.13 in Calm     85% 0 in meteobridge W/m2
21:34 73.2 °F 68.4 °F 30.13 in Calm     85% 0 in meteobridge W/m2
21:39 73.2 °F 68.4 °F 30.13 in Calm     85% 0 in meteobridge W/m2
21:44 73.2 °F 68.4 °F 30.13 in Calm     85% 0 in meteobridge W/m2
21:49 73.2 °F 68.4 °F 30.12 in Calm     85% 0 in meteobridge W/m2
21:54 73.2 °F 68.4 °F 30.12 in Calm     85% 0 in meteobridge W/m2
21:59 73 °F 68.2 °F 30.13 in Calm     85% 0 in meteobridge W/m2
22:04 73 °F 68.2 °F 30.13 in Calm     85% 0 in meteobridge W/m2
22:09 73 °F 68.2 °F 30.13 in Calm     85% 0 in meteobridge W/m2
22:14 73 °F 68.2 °F 30.14 in Calm     85% 0 in meteobridge W/m2
22:19 73 °F 68.2 °F 30.14 in Calm     85% 0 in meteobridge W/m2
22:24 72.9 °F 68 °F 30.14 in Calm     85% 0 in meteobridge W/m2
22:29 72.9 °F 68 °F 30.14 in Calm     85% 0 in meteobridge W/m2
22:34 72.9 °F 68 °F 30.14 in Calm     85% 0 in meteobridge W/m2
22:39 72.9 °F 68 °F 30.14 in Calm     85% 0 in meteobridge W/m2
22:44 72.9 °F 68 °F 30.14 in Calm     85% 0 in meteobridge W/m2
22:49 72.9 °F 68 °F 30.14 in Calm     85% 0 in meteobridge W/m2
22:54 72.9 °F 68 °F 30.14 in Calm     85% 0 in meteobridge W/m2
22:59 73 °F 68.2 °F 30.14 in Calm     85% 0 in meteobridge W/m2
23:04 73 °F 68.2 °F 30.14 in Calm     85% 0 in meteobridge W/m2
23:09 72.9 °F 68 °F 30.14 in Calm     85% 0 in meteobridge W/m2
23:14 73 °F 68.2 °F 30.14 in Calm     85% 0 in meteobridge W/m2
23:19 73 °F 68.2 °F 30.14 in Calm     85% 0 in meteobridge W/m2
23:24 73 °F 68.2 °F 30.14 in Calm     85% 0 in meteobridge W/m2
23:29 73 °F 68.2 °F 30.14 in Calm     85% 0 in meteobridge W/m2
23:34 72.9 °F 68 °F 30.14 in Calm     85% 0 in meteobridge W/m2
23:39 72.9 °F 68 °F 30.14 in Calm     85% 0 in meteobridge W/m2
23:44 72.9 °F 68 °F 30.14 in Calm     85% 0 in meteobridge W/m2
23:49 72.9 °F 68 °F 30.14 in Calm     85% 0 in meteobridge W/m2
23:54 72.9 °F 68 °F 30.13 in Calm     85% 0 in meteobridge W/m2
23:59 72.9 °F 68 °F 30.13 in Calm     85% 0 in meteobridge W/m2
EllijayWeather
Compliments of Weather Underground - 2.5 mb